| time (UTC) | temp F | wind direction | speed knots | gust knots | rain 1hr in | rain 24hr in | rain mn in | humidity % | barometer mb |
| 20260505012003 | 50 | 246 | 3.5 | 8.7 | 0.00 | 0.00 | 0.00 | 95 | 1012.4 |
| 20260505011510 | 50 | 251 | 3.5 | 8.7 | 0.00 | 0.00 | 0.00 | 95 | 1012.4 |
| 20260505011500 | 50 | 248 | 2.6 | 9.6 | 0.00 | 0.00 | 0.00 | 95 | 1012.9 |
| 20260505011002 | 50 | 250 | 3.5 | 8.7 | 0.00 | 0.00 | 0.00 | 95 | 1012.4 |
| 20260505010504 | 50 | 210 | 4.3 | 8.7 | 0.00 | 0.00 | 0.00 | 95 | 1012.3 |
| 20260505010012 | 50 | 250 | 3.5 | 10.4 | 0.00 | 0.00 | 0.00 | 95 | 1012.3 |
| 20260505005504 | 50 | 263 | 4.3 | 10.4 | 0.00 | 0.00 | 0.00 | 94 | 1012.2 |
| 20260505005004 | 50 | 274 | 4.3 | 9.6 | 0.00 | 0.00 | 0.00 | 94 | 1012.1 |
| 20260505004510 | 50 | 229 | 3.5 | 10.4 | 0.00 | 0.00 | 0.00 | 94 | 1012.1 |
| 20260505004502 | 50 | 232 | 3.5 | 10.4 | 0.00 | 0.00 | 0.00 | 94 | 1012.5 |
| 20260505004004 | 51 | 217 | 3.5 | 10.4 | 0.00 | 0.00 | 0.00 | 94 | 1012.0 |
| 20260505003503 | 51 | 235 | 4.3 | 9.6 | 0.00 | 0.00 | 0.00 | 94 | 1011.9 |
| 20260505003011 | 51 | 227 | 4.3 | 10.4 | 0.00 | 0.00 | 0.00 | 93 | 1011.9 |
| 20260505003001 | 51 | 225 | 3.5 | 10.4 | 0.00 | 0.00 | 0.00 | 94 | 1012.4 |
| 20260505002505 | 51 | 210 | 2.6 | 11.3 | 0.00 | 0.00 | 0.00 | 93 | 1011.7 |
| 20260505002003 | 51 | 230 | 3.5 | 11.3 | 0.00 | 0.00 | 0.00 | 93 | 1011.7 |
| 20260505001510 | 51 | 206 | 4.3 | 10.4 | 0.00 | 0.00 | 0.00 | 93 | 1011.6 |
| 20260505001501 | 51 | 205 | 4.3 | 9.6 | 0.00 | 0.00 | 0.00 | 93 | 1012.1 |
| 20260505001003 | 51 | 210 | 4.3 | 12.2 | 0.00 | 0.00 | 0.00 | 92 | 1011.5 |
| 20260505000503 | 51 | 211 | 3.5 | 12.2 | 0.00 | 0.00 | 0.00 | 92 | 1011.4 |
| 20260505000011 | 51 | 253 | 3.5 | 9.6 | 0.00 | 0.00 | 0.00 | 92 | 1011.2 |
| 20260505000005 | 51 | 194 | 3.5 | 10.4 | 0.00 | 0.00 | 0.00 | 92 | 1011.8 |
| 20260504235503 | 51 | 236 | 3.5 | 9.6 | 0.00 | 0.00 | 0.00 | 91 | 1011.3 |
| 20260504235004 | 52 | 264 | 2.6 | 10.4 | 0.00 | 0.00 | 0.00 | 91 | 1011.2 |
| 20260504234508 | 52 | 257 | 3.5 | 10.4 | 0.00 | 0.00 | 0.00 | 91 | 1011.1 |
| 20260504234500 | 52 | 254 | 4.3 | 10.4 | 0.00 | 0.00 | 0.00 | 92 | 1011.8 |
| 20260504234001 | 52 | 267 | 3.5 | 12.2 | 0.00 | 0.00 | 0.00 | 91 | 1011.1 |
| 20260504233505 | 52 | 257 | 3.5 | 12.2 | 0.00 | 0.00 | 0.00 | 91 | 1011.2 |
| 20260504233010 | 52 | 219 | 4.3 | 12.2 | 0.00 | 0.00 | 0.00 | 91 | 1011.2 |
| 20260504233001 | 52 | 217 | 4.3 | 13.0 | 0.00 | 0.00 | 0.00 | 91 | 1011.6 |
| 20260504232503 | 53 | 231 | 4.3 | 12.2 | 0.00 | 0.00 | 0.00 | 90 | 1011.3 |
| 20260504232005 | 53 | 253 | 4.3 | 9.6 | 0.00 | 0.00 | 0.00 | 90 | 1011.2 |
| 20260504231509 | 53 | 229 | 4.3 | 9.6 | 0.00 | 0.00 | 0.00 | 90 | 1011.2 |
| 20260504231500 | 53 | 227 | 4.3 | 10.4 | 0.00 | 0.00 | 0.00 | 91 | 1011.7 |
| 20260504231003 | 53 | 218 | 2.6 | 12.2 | 0.00 | 0.00 | 0.00 | 90 | 1011.2 |
| 20260504230503 | 53 | 259 | 2.6 | 12.2 | 0.00 | 0.00 | 0.00 | 90 | 1011.2 |
| 20260504230015 | 54 | 281 | 4.3 | 13.9 | 0.00 | 0.00 | 0.00 | 90 | 1011.3 |
| 20260504230005 | 54 | 245 | 4.3 | 13.0 | 0.00 | 0.00 | 0.00 | 90 | 1011.8 |
| 20260504225503 | 54 | 243 | 5.2 | 13.9 | 0.00 | 0.00 | 0.00 | 89 | 1011.2 |
| 20260504225004 | 54 | 241 | 6.1 | 13.9 | 0.00 | 0.00 | 0.00 | 89 | 1011.2 |
| 20260504224510 | 54 | 228 | 5.2 | 15.6 | 0.00 | 0.00 | 0.00 | 89 | 1011.3 |
| 20260504224004 | 54 | 259 | 6.1 | 15.6 | 0.00 | 0.00 | 0.00 | 89 | 1011.2 |
| 20260504223503 | 54 | 199 | 4.3 | 12.2 | 0.00 | 0.00 | 0.00 | 89 | 1011.3 |
| 20260504223010 | 55 | 256 | 4.3 | 13.9 | 0.00 | 0.00 | 0.00 | 89 | 1011.2 |
| 20260504223002 | 55 | 253 | 4.3 | 14.8 | 0.00 | 0.00 | 0.00 | 90 | 1011.8 |
| 20260504222503 | 55 | 230 | 7.0 | 16.5 | 0.00 | 0.00 | 0.00 | 89 | 1011.4 |
| 20260504222007 | 55 | 293 | 7.0 | 17.4 | 0.00 | 0.00 | 0.00 | 89 | 1011.3 |
| 20260504221518 | 55 | 195 | 6.1 | 17.4 | 0.00 | 0.00 | 0.00 | 89 | 1011.4 |
| 20260504221002 | 55 | 297 | 5.2 | 15.6 | 0.00 | 0.00 | 0.00 | 89 | 1011.4 |
| 20260504220503 | 55 | 259 | 7.0 | 16.5 | 0.00 | 0.00 | 0.00 | 89 | 1011.5 |
| 20260504220012 | 55 | 278 | 5.2 | 17.4 | 0.00 | 0.00 | 0.00 | 89 | 1011.5 |
| 20260504220005 | 55 | 273 | 5.2 | 18.2 | 0.00 | 0.00 | 0.00 | 90 | 1011.9 |
| 20260504215504 | 55 | 238 | 7.0 | 17.4 | 0.00 | 0.00 | 0.00 | 89 | 1011.4 |
| 20260504215011 | 55 | 326 | 7.0 | 15.6 | 0.00 | 0.00 | 0.00 | 89 | 1011.4 |
| 20260504214513 | 55 | 240 | 4.3 | 15.6 | 0.00 | 0.00 | 0.00 | 89 | 1011.2 |
| 20260504214003 | 55 | 251 | 3.5 | 16.5 | 0.00 | 0.00 | 0.00 | 89 | 1011.4 |
| 20260504213504 | 56 | 217 | 7.8 | 16.5 | 0.00 | 0.00 | 0.00 | 88 | 1011.2 |
| 20260504213035 | 56 | 237 | 5.2 | 15.6 | 0.00 | 0.00 | 0.00 | 88 | 1011.5 |
| 20260504213002 | 56 | 235 | 5.2 | 16.5 | 0.00 | 0.00 | 0.00 | 88 | 1012.0 |
| 20260504212503 | 56 | 287 | 4.3 | 16.5 | 0.00 | 0.00 | 0.00 | 87 | 1011.5 |
| 20260504212004 | 57 | 240 | 7.0 | 16.5 | 0.00 | 0.00 | 0.00 | 87 | 1011.5 |
| 20260504211515 | 57 | 225 | 8.7 | 16.5 | 0.00 | 0.00 | 0.00 | 87 | 1011.6 |
| 20260504211501 | 57 | 223 | 8.7 | 17.4 | 0.00 | 0.00 | 0.00 | 87 | 1012.0 |
| 20260504211003 | 57 | 290 | 5.2 | 16.5 | 0.00 | 0.00 | 0.00 | 87 | 1011.5 |
| 20260504210503 | 57 | 295 | 5.2 | 18.2 | 0.00 | 0.00 | 0.00 | 87 | 1011.6 |
| 20260504210014 | 57 | 253 | 8.7 | 18.2 | 0.00 | 0.00 | 0.00 | 86 | 1011.4 |
| 20260504210009 | 57 | 193 | 8.7 | 17.4 | 0.00 | 0.00 | 0.00 | 86 | 1012.0 |
| 20260504205506 | 57 | 267 | 7.0 | 16.5 | 0.00 | 0.00 | 0.00 | 86 | 1011.4 |
| 20260504205006 | 58 | 235 | 7.0 | 17.4 | 0.00 | 0.00 | 0.00 | 86 | 1011.4 |
| 20260504204517 | 57 | 256 | 7.8 | 17.4 | 0.00 | 0.00 | 0.00 | 85 | 1011.3 |
| 20260504204006 | 58 | 224 | 6.1 | 20.9 | 0.00 | 0.00 | 0.00 | 84 | 1011.3 |
| 20260504203510 | 58 | 248 | 7.8 | 20.9 | 0.00 | 0.00 | 0.00 | 85 | 1011.4 |
| 20260504203015 | 59 | 222 | 7.8 | 20.9 | 0.00 | 0.00 | 0.00 | 85 | 1011.3 |
| 20260504202504 | 58 | 234 | 4.3 | 17.4 | 0.00 | 0.00 | 0.00 | 84 | 1011.3 |
| 20260504202004 | 59 | 221 | 5.2 | 15.6 | 0.00 | 0.00 | 0.00 | 84 | 1011.3 |
| 20260504201523 | 59 | 288 | 7.0 | 19.1 | 0.00 | 0.00 | 0.00 | 84 | 1011.2 |
| 20260504201003 | 58 | 240 | 6.1 | 19.1 | 0.00 | 0.00 | 0.00 | 83 | 1011.2 |
| 20260504200502 | 59 | 210 | 7.8 | 19.1 | 0.00 | 0.00 | 0.00 | 83 | 1011.4 |
| 20260504200015 | 59 | 209 | 5.2 | 18.2 | 0.00 | 0.00 | 0.00 | 83 | 1011.4 |
| 20260504200005 | 59 | 203 | 6.1 | 19.1 | 0.00 | 0.00 | 0.00 | 84 | 1011.9 |
| 20260504195505 | 59 | 219 | 4.3 | 18.2 | 0.00 | 0.00 | 0.00 | 82 | 1011.6 |
| 20260504195007 | 59 | 210 | 6.1 | 15.6 | 0.00 | 0.00 | 0.00 | 82 | 1011.5 |
| 20260504194517 | 60 | 244 | 5.2 | 15.6 | 0.00 | 0.00 | 0.00 | 82 | 1011.5 |
| 20260504194006 | 60 | 231 | 4.3 | 14.8 | 0.00 | 0.00 | 0.00 | 81 | 1011.6 |
| 20260504193508 | 60 | 276 | 5.2 | 16.5 | 0.00 | 0.00 | 0.00 | 82 | 1011.6 |
| 20260504193016 | 60 | 269 | 7.0 | 16.5 | 0.00 | 0.00 | 0.00 | 82 | 1011.6 |
| 20260504192506 | 60 | 254 | 7.8 | 16.5 | 0.00 | 0.00 | 0.00 | 83 | 1011.6 |
| 20260504192005 | 60 | 281 | 7.0 | 15.6 | 0.00 | 0.00 | 0.00 | 81 | 1011.6 |
| 20260504191518 | 61 | 260 | 5.2 | 13.9 | 0.00 | 0.00 | 0.00 | 81 | 1011.7 |
| 20260504191012 | 61 | 224 | 3.5 | 18.2 | 0.00 | 0.00 | 0.00 | 82 | 1011.7 |
| 20260504190504 | 60 | 302 | 3.5 | 18.2 | 0.00 | 0.00 | 0.00 | 83 | 1011.7 |
| 20260504190016 | 60 | 255 | 4.3 | 13.9 | 0.00 | 0.00 | 0.00 | 83 | 1011.8 |
| 20260504190002 | 60 | 242 | 4.3 | 13.0 | 0.00 | 0.00 | 0.00 | 83 | 1012.5 |
| 20260504185510 | 60 | 210 | 6.1 | 15.6 | 0.00 | 0.00 | 0.00 | 82 | 1011.8 |
| 20260504185007 | 60 | 281 | 5.2 | 15.6 | 0.00 | 0.00 | 0.00 | 83 | 1011.9 |
| 20260504184515 | 60 | 160 | 5.2 | 12.2 | 0.00 | 0.00 | 0.00 | 82 | 1011.8 |
| 20260504184007 | 60 | 265 | 4.3 | 11.3 | 0.00 | 0.00 | 0.00 | 82 | 1011.9 |
| 20260504183508 | 61 | 211 | 4.3 | 11.3 | 0.00 | 0.00 | 0.00 | 82 | 1012.0 |
| 20260504183021 | 60 | 244 | 4.3 | 13.9 | 0.00 | 0.00 | 0.00 | 82 | 1011.9 |
| 20260504182510 | 61 | 261 | 5.2 | 13.9 | 0.00 | 0.00 | 0.00 | 82 | 1012.0 |
| 20260504182006 | 60 | 236 | 6.1 | 17.4 | 0.00 | 0.00 | 0.00 | 83 | 1012.1 |
| 20260504181512 | 60 | 281 | 7.0 | 20.0 | 0.00 | 0.00 | 0.00 | 84 | 1012.1 |
| 20260504181004 | 60 | 211 | 7.8 | 20.0 | 0.00 | 0.00 | 0.00 | 81 | 1012.1 |
| 20260504180504 | 60 | 261 | 5.2 | 15.6 | 0.00 | 0.00 | 0.00 | 83 | 1012.2 |
| 20260504180020 | 60 | 276 | 4.3 | 19.1 | 0.00 | 0.00 | 0.00 | 83 | 1012.2 |
| 20260504180002 | 60 | 254 | 4.3 | 20.0 | 0.00 | 0.00 | 0.00 | 84 | 1012.7 |
| 20260504175508 | 61 | 237 | 7.0 | 19.1 | 0.00 | 0.00 | 0.00 | 83 | 1012.2 |
| 20260504175011 | 61 | 253 | 4.3 | 12.2 | 0.00 | 0.00 | 0.00 | 85 | 1012.3 |
| 20260504174519 | 60 | 268 | 4.3 | 13.9 | 0.00 | 0.00 | 0.00 | 85 | 1012.3 |
| 20260504174004 | 60 | 248 | 6.1 | 16.5 | 0.00 | 0.00 | 0.00 | 85 | 1012.3 |
| 20260504173510 | 60 | 231 | 5.2 | 16.5 | 0.00 | 0.00 | 0.00 | 86 | 1012.3 |
| 20260504173031 | 59 | 276 | 7.8 | 16.5 | 0.00 | 0.00 | 0.00 | 86 | 1012.3 |
| 20260504172507 | 60 | 268 | 7.0 | 16.5 | 0.00 | 0.00 | 0.00 | 86 | 1012.4 |
| 20260504172007 | 60 | 219 | 7.8 | 13.0 | 0.00 | 0.00 | 0.00 | 86 | 1012.4 |
| 20260504171522 | 60 | 198 | 6.1 | 14.8 | 0.00 | 0.00 | 0.00 | 85 | 1012.4 |
| 20260504171009 | 60 | 224 | 6.1 | 14.8 | 0.00 | 0.00 | 0.00 | 86 | 1012.5 |
| 20260504170504 | 60 | 237 | 7.0 | 12.2 | 0.00 | 0.00 | 0.00 | 86 | 1012.6 |
| 20260504151011 | 60 | 231 | 7.8 | 13.0 | 0.00 | 0.00 | 0.00 | 83 | 1013.3 |
| 20260504150507 | 59 | 278 | 5.2 | 14.8 | 0.00 | 0.00 | 0.00 | 83 | 1013.2 |
| 20260504141006 | 58 | 226 | 3.5 | 13.0 | 0.00 | 0.00 | 0.00 | 83 | 1013.5 |
| 20260504140507 | 58 | 272 | 3.5 | 14.8 | 0.00 | 0.00 | 0.00 | 82 | 1013.6 |
| 20260504130510 | 59 | 318 | 4.3 | 11.3 | 0.00 | 0.00 | 0.00 | 78 | 1013.6 |
| 20260504110507 | 45 | 266 | 1.7 | 3.5 | 0.00 | 0.00 | 0.00 | 98 | 1013.6 |
| 20260504100509 | 39 | 273 | 0.9 | 3.5 | 0.00 | 0.00 | 0.00 | 93 | 1013.3 |
| 20260504082004 | 40 | 345 | 0.9 | 4.3 | 0.00 | 0.00 | 0.00 | 93 | 1012.8 |
| 20260504081511 | 40 | 287 | 0.9 | 4.3 | 0.00 | 0.00 | 0.00 | 93 | 1012.8 |
| 20260504081006 | 40 | 319 | 0.9 | 2.6 | 0.00 | 0.00 | 0.00 | 93 | 1012.8 |
| 20260504080504 | 40 | 325 | 0.9 | 2.6 | 0.00 | 0.00 | 0.00 | 93 | 1012.8 |
| 20260504050504 | 40 | 306 | 0.9 | 3.5 | 0.00 | 0.00 | 0.00 | 88 | 1012.0 |
| 20260504050012 | 40 | 277 | 0.0 | 2.6 | 0.00 | 0.00 | 0.00 | 88 | 1012.0 |
| 20260504050002 | 40 | 273 | 0.0 | 2.6 | 0.00 | 0.00 | 0.00 | 89 | 1012.7 |
| 20260504045504 | 40 | 269 | 0.0 | 1.7 | 0.00 | 0.00 | 0.00 | 88 | 1012.0 |
| 20260504045009 | 40 | 269 | 0.0 | 1.7 | 0.00 | 0.00 | 0.00 | 88 | 1012.1 |
| 20260504044534 | 40 | 243 | 0.0 | 0.9 | 0.00 | 0.00 | 0.00 | 88 | 1012.1 |
| 20260504044507 | 40 | 240 | 0.0 | 0.9 | 0.00 | 0.00 | 0.00 | 88 | 1012.9 |
| 20260504044006 | 40 | 242 | 0.0 | 1.7 | 0.00 | 0.00 | 0.00 | 88 | 1012.1 |
| 20260504043503 | 40 | 242 | 0.0 | 1.7 | 0.00 | 0.00 | 0.00 | 88 | 1012.2 |
| 20260504043018 | 41 | 241 | 0.0 | 0.9 | 0.00 | 0.00 | 0.00 | 88 | 1012.2 |
| 20260504043005 | 41 | 239 | 0.0 | 0.9 | 0.00 | 0.00 | 0.00 | 88 | 1012.9 |
| 20260504042503 | 41 | 241 | 0.0 | 0.9 | 0.00 | 0.00 | 0.00 | 88 | 1012.1 |
| 20260504042009 | 41 | 241 | 0.0 | 0.9 | 0.00 | 0.00 | 0.00 | 87 | 1012.1 |
| 20260504041520 | 41 | 241 | 0.0 | 0.9 | 0.00 | 0.00 | 0.00 | 87 | 1012.1 |
| 20260504041501 | 41 | 239 | 0.0 | 0.9 | 0.00 | 0.00 | 0.00 | 88 | 1012.8 |
| 20260504041006 | 41 | 241 | 0.0 | 0.9 | 0.00 | 0.00 | 0.00 | 87 | 1012.0 |
| 20260504040502 | 41 | 241 | 0.0 | 0.9 | 0.00 | 0.00 | 0.00 | 87 | 1011.9 |
| 20260504040008 | 41 | 241 | 0.0 | 0.0 | 0.00 | 0.00 | 0.00 | 87 | 1011.8 |
| 20260504035506 | 41 | 241 | 0.0 | 0.0 | 0.00 | 0.00 | 0.00 | 87 | 1011.8 |
| 20260504035004 | 41 | 241 | 0.0 | 0.0 | 0.00 | 0.00 | 0.00 | 87 | 1011.8 |
| 20260504034510 | 41 | 241 | 0.0 | 0.9 | 0.00 | 0.00 | 0.00 | 87 | 1011.8 |
| 20260504034501 | 41 | 239 | 0.0 | 0.9 | 0.00 | 0.00 | 0.00 | 87 | 1012.4 |
| 20260504034004 | 41 | 241 | 0.0 | 1.7 | 0.00 | 0.00 | 0.00 | 87 | 1011.9 |
| 20260504033508 | 41 | 240 | 0.0 | 1.7 | 0.00 | 0.00 | 0.00 | 86 | 1011.8 |
| 20260504033012 | 41 | 240 | 0.0 | 2.6 | 0.00 | 0.00 | 0.00 | 86 | 1011.9 |
| 20260504033001 | 41 | 238 | 0.0 | 2.6 | 0.00 | 0.00 | 0.00 | 86 | 1012.5 |
| 20260504032506 | 41 | 240 | 0.0 | 2.6 | 0.00 | 0.00 | 0.00 | 86 | 1011.8 |
| 20260504032006 | 42 | 244 | 0.0 | 2.6 | 0.00 | 0.00 | 0.00 | 85 | 1011.8 |
| 20260504031522 | 42 | 244 | 0.0 | 2.6 | 0.00 | 0.00 | 0.00 | 85 | 1011.8 |
| 20260504031503 | 42 | 242 | 0.0 | 2.6 | 0.00 | 0.00 | 0.00 | 86 | 1012.5 |
| 20260504031007 | 42 | 247 | 0.0 | 0.0 | 0.00 | 0.00 | 0.00 | 85 | 1011.9 |
| 20260504030508 | 42 | 247 | 0.0 | 0.0 | 0.00 | 0.00 | 0.00 | 85 | 1011.9 |
| 20260504030026 | 42 | 247 | 0.0 | 0.0 | 0.00 | 0.00 | 0.00 | 85 | 1011.8 |
| 20260504030004 | 42 | 244 | 0.0 | 0.0 | 0.00 | 0.00 | 0.00 | 86 | 1012.4 |
| 20260504025509 | 42 | 247 | 0.0 | 0.9 | 0.00 | 0.00 | 0.00 | 85 | 1011.8 |
| 20260504025006 | 42 | 246 | 0.0 | 1.7 | 0.00 | 0.00 | 0.00 | 84 | 1011.8 |
| 20260504024510 | 42 | 246 | 0.0 | 1.7 | 0.00 | 0.00 | 0.00 | 84 | 1011.8 |
| 20260504024502 | 42 | 244 | 0.0 | 1.7 | 0.00 | 0.00 | 0.00 | 85 | 1012.5 |
| 20260504023507 | 42 | 246 | 0.0 | 0.9 | 0.00 | 0.00 | 0.00 | 84 | 1011.8 |
| 20260504023013 | 42 | 246 | 0.0 | 2.6 | 0.00 | 0.00 | 0.00 | 83 | 1011.8 |
| 20260504023002 | 42 | 244 | 0.0 | 0.9 | 0.00 | 0.00 | 0.00 | 84 | 1012.4 |
| 20260504022508 | 42 | 246 | 0.0 | 2.6 | 0.00 | 0.00 | 0.00 | 83 | 1011.8 |
| 20260504022004 | 42 | 245 | 0.0 | 2.6 | 0.00 | 0.00 | 0.00 | 83 | 1011.8 |
| 20260504021525 | 42 | 246 | 0.0 | 2.6 | 0.00 | 0.00 | 0.00 | 82 | 1011.8 |
| 20260504021504 | 42 | 244 | 0.0 | 2.6 | 0.00 | 0.00 | 0.00 | 83 | 1012.4 |
| 20260504021006 | 42 | 248 | 0.0 | 3.5 | 0.00 | 0.00 | 0.00 | 82 | 1011.9 |
| 20260504020506 | 43 | 233 | 0.0 | 6.1 | 0.00 | 0.00 | 0.00 | 82 | 1011.8 |
| 20260504020020 | 43 | 240 | 0.9 | 6.1 | 0.00 | 0.00 | 0.00 | 81 | 1011.9 |
| 20260504020003 | 43 | 238 | 0.9 | 6.1 | 0.00 | 0.00 | 0.00 | 82 | 1012.5 |
| 20260504015508 | 43 | 244 | 0.0 | 4.3 | 0.00 | 0.00 | 0.00 | 81 | 1011.8 |
| 20260504015007 | 43 | 217 | 0.9 | 4.3 | 0.00 | 0.00 | 0.00 | 80 | 1011.7 |
| 20260504014514 | 43 | 287 | 0.0 | 0.0 | 0.00 | 0.00 | 0.00 | 79 | 1011.7 |
| 20260504014003 | 44 | 287 | 0.0 | 0.0 | 0.00 | 0.00 | 0.00 | 79 | 1011.7 |
| 20260504013503 | 44 | 287 | 0.0 | 0.0 | 0.00 | 0.00 | 0.00 | 79 | 1011.6 |
| 20260504013010 | 44 | 287 | 0.0 | 0.0 | 0.00 | 0.00 | 0.00 | 79 | 1011.4 |
| 20260504012504 | 44 | 287 | 0.0 | 0.0 | 0.00 | 0.00 | 0.00 | 79 | 1011.4 |